Home > Weather > Voronezh > Past weeks

Flag for Russia Past Weather in Voronezh, Russia — Yesterday and Last 2 Weeks

Now
75 °F

Sunny.


Feels Like: 77 °F
Forecast: 56 / 68 °F
Wind: 8 mph from Northeast

Location: Voronez

Current Time: May 30, 2016 at 11:56:53 AM

Latest Report: May 30, 2016 at 11:00 AM


Visibility: 10 mi

Pressure: 29.89 "Hg

Humidity: 65%

Dew Point: 63 °F

Location of VoronezhLocation

Past Weather in Voronezh — Graph

°F

Voronezh Temperature Yesterday

Maximum temperature yesterday: 77 °F (at 12:30 PM)
Minimum temperature yesterday: 64 °F (at 2:00 AM)
Average temperature yesterday: 70 °F

High & Low Weather Summary for the Past Weeks

 TemperatureHumidityPressure
High81 °F (May 28, 2:30 PM)100% (May 16, 7:00 AM)30.01 "Hg (May 16, 7:00 AM)
Low45 °F (May 23, 4:30 AM)34% (May 25, 5:00 PM)29.47 "Hg (May 15, 10:00 AM)
Average59 °F80%29.83 "Hg
* Reported May 15 10:00 AM — May 30 10:30 AM, Voronezh, Weather by CustomWeather, © 2016

Note: Actual official high and low records may vary slightly from our data, if they occured in-between our weather recording intervals... More about our weather records

Advertising

Voronezh Weather History for the Previous 24 Hours

Scroll right to see more
 ConditionsComfort  
Time TempWeatherWind HumidityBarometerVisibility
10:30 AM
Mon, May 30
72 °FSunny.10 mph69%29.89 "Hg10 mi
10:00 AM72 °FSunny.6 mph69%29.89 "Hg10 mi
9:30 AM70 °FSunny.6 mph69%29.89 "Hg10 mi
9:00 AM68 °FSunny.6 mph73%29.89 "Hg10 mi
8:30 AM66 °FSunny.3 mph78%29.89 "Hg10 mi
8:00 AM66 °FSunny.6 mph73%29.89 "Hg10 mi
7:30 AM66 °FSunny.6 mph78%29.89 "Hg10 mi
7:00 AM64 °FSunny.8 mph78%29.89 "Hg10 mi
6:30 AM64 °FSunny.10 mph78%29.89 "Hg10 mi
6:00 AM64 °FSunny.6 mph78%29.89 "Hg10 mi
5:30 AM63 °FSunny.6 mph83%29.89 "Hg10 mi
5:00 AM63 °FSunny.6 mph83%29.89 "Hg10 mi
4:00 AM63 °FClear.6 mph88%29.89 "Hg10 mi
3:00 AM63 °FClear.3 mph83%29.89 "Hg10 mi
2:30 AM64 °FClear.8 mph83%29.89 "Hg10 mi
2:00 AM64 °FClear.8 mph83%29.89 "Hg10 mi
1:30 AM64 °FClear.6 mph83%29.89 "Hg10 mi
1:00 AM64 °FClear.6 mph83%29.89 "Hg10 mi
12:30 AM64 °FClear.6 mph83%29.92 "Hg10 mi
12:00 AM63 °FClear.6 mph88%29.92 "Hg10 mi
11:30 PM
Sun, May 29
64 °FClear.6 mph83%29.92 "Hg10 mi
11:00 PM64 °FClear.8 mph83%29.92 "Hg10 mi
10:30 PM64 °FClear.6 mph78%29.92 "Hg10 mi
10:00 PM64 °FClear.6 mph78%29.92 "Hg10 mi
9:30 PM66 °FClear.8 mph73%29.92 "Hg10 mi
9:00 PM66 °FPassing clouds.6 mph73%29.92 "HgN/A
8:30 PM68 °FClear.6 mph64%29.92 "Hg10 mi
8:00 PM70 °FSunny.8 mph60%29.92 "Hg10 mi
7:30 PM72 °FSunny.6 mph57%29.89 "Hg10 mi
7:00 PM73 °FSunny.10 mph53%29.89 "Hg10 mi
6:30 PM73 °FSunny.10 mph53%29.89 "Hg10 mi
6:00 PM73 °FScattered clouds.8 mph57%29.89 "HgN/A
5:30 PM73 °FScattered clouds.13 mph53%29.89 "HgN/A
5:00 PM75 °FScattered clouds.15 mph54%29.89 "HgN/A
4:30 PM75 °FScattered clouds.15 mph54%29.89 "HgN/A
4:00 PM75 °FScattered clouds.17 mph54%29.89 "HgN/A
3:00 PM75 °FScattered clouds.15 mph50%29.92 "HgN/A
2:30 PM75 °FScattered clouds.15 mph50%29.92 "HgN/A
2:00 PM75 °FScattered clouds.10 mph50%29.92 "HgN/A
1:30 PM77 °FPartly sunny.15 mph47%29.89 "HgN/A
1:00 PM75 °FPartly sunny.15 mph54%29.89 "HgN/A
12:30 PM77 °FPartly sunny.13 mph51%29.89 "HgN/A
12:00 PM75 °FPartly sunny.13 mph54%29.89 "HgN/A
11:00 AM75 °FSunny.8 mph57%29.89 "Hg10 mi
Weather by CustomWeather, © 2016

See weather overviewHow to use our weather pages